RAINCUBE

Last updated on Thu Dec 24 2020 06:22:42 GMT+0000 (Coordinated Universal Time)

1 43548U 98067NW 20358.54873977 .07367411 12353-4 71823-3 0 9993 2 43548 51.6133 23.4318 0001982 43.8993 316.2190 16.37524600140249

Satellite not in orbit